CW8081 Thessaloniki GR current weather conditions

sailwx.info

Wind from 034

Air temperature 10.6° C
Dewpoint 7.1° C

Last reported at 2017-Dec-14 04:01 UTC.
Time now 2017-Dec-14 04:34 UTC

Location: N 40°34' E 022°58'.
View on Google Maps.

See reports from other nearby stations

  
Tides and Currents Weather Stations Pressure Air Temp Water Temp Dewpoint Dewpoint Depression Visibility Wind Speed Wind Dir Waves Ship Positions
date/time (UTC)wind fromknots sea level pressurealtimeterstation pressurevisibilityair tempwater tempwave heightnotes
2017-Dec-14 04:06 034 10.6
2017-Dec-14 04:01 034 10.6
2017-Dec-14 03:36 022 10.6
2017-Dec-14 03:31 021 10.6
2017-Dec-14 03:16 021 10.6
2017-Dec-14 03:11 021 10.6
2017-Dec-14 03:06 021 10.6
2017-Dec-14 03:01 021 10.6
2017-Dec-14 02:46 021 10.0
2017-Dec-14 02:41 021 10.0
2017-Dec-14 02:36 021 10.0
2017-Dec-14 02:31 020 10.0
2017-Dec-14 02:16 342 10.0
2017-Dec-14 02:11 342 10.6
2017-Dec-14 01:46 271 10.6
2017-Dec-14 01:41 271 10.6
2017-Dec-14 01:36 271 10.6
2017-Dec-14 01:31 271 11.1
2017-Dec-14 01:16 240 11.1
2017-Dec-14 01:11 240 11.1
2017-Dec-14 01:06 240 0 gusting 2 10.6
2017-Dec-14 00:46 031 10.6
2017-Dec-14 00:36 030 10.6
2017-Dec-14 00:16 029 10.6
2017-Dec-14 00:11 029 10.6
2017-Dec-14 00:06 017 0 gusting 2 10.6
2017-Dec-14 00:01 207 10.6
2017-Dec-13 23:46 203 10.6
2017-Dec-13 23:41 204 10.6
2017-Dec-13 23:36 029 10.6
2017-Dec-13 23:31 029 1 gusting 2 10.6
2017-Dec-13 23:16 082 10.6
2017-Dec-13 23:11 082 10.6
2017-Dec-13 23:06 082 10.6
2017-Dec-13 23:01 083 10.6
2017-Dec-13 22:46 082 10.6
2017-Dec-13 22:41 082 10.6
2017-Dec-13 22:36 080 10.6
2017-Dec-13 22:31 130 10.6
2017-Dec-13 22:16 048 10.6
2017-Dec-13 22:01 048 10.6
2017-Dec-13 21:46 049 10.6
2017-Dec-13 21:41 049 10.6
2017-Dec-13 21:06 067 10.6
2017-Dec-13 21:01 067 10.6
2017-Dec-13 20:46 068 10.6
2017-Dec-13 20:41 068 10.6
2017-Dec-13 20:36 068 11.1
2017-Dec-13 20:16 067 11.1
2017-Dec-13 20:06 068 11.1
2017-Dec-13 19:46 067 0 gusting 2 10.6
2017-Dec-13 19:36 113 10.6
2017-Dec-13 19:31 119 10.6
2017-Dec-13 19:06 125 10.6
2017-Dec-13 19:01 159 10.6
2017-Dec-13 18:41 160 11.1
2017-Dec-13 18:31 160 11.1
2017-Dec-13 18:16 160 11.1
2017-Dec-13 18:06 160 11.1
2017-Dec-13 18:01 160 11.1
2017-Dec-13 17:46 161 11.1
2017-Dec-13 17:41 161 11.1
2017-Dec-13 17:36 158 11.1
2017-Dec-13 17:11 157 11.7
2017-Dec-13 17:06 157 11.7
2017-Dec-13 17:01 157 11.7
2017-Dec-13 16:46 157 11.7
2017-Dec-13 16:36 157 11.7
2017-Dec-13 16:31 157 11.7
2017-Dec-13 16:11 157 12.2
2017-Dec-13 16:06 157 12.2
2017-Dec-13 16:01 157 12.2
2017-Dec-13 15:46 157 12.2
2017-Dec-13 15:41 157 12.2
2017-Dec-13 15:36 157 12.2
2017-Dec-13 15:31 157 12.2
2017-Dec-13 15:16 157 12.2
2017-Dec-13 15:11 157 12.8
2017-Dec-13 15:06 157 12.8
2017-Dec-13 15:01 157 12.8
2017-Dec-13 14:46 222 12.8
2017-Dec-13 14:36 222 12.8
2017-Dec-13 14:31 222 12.8
2017-Dec-13 14:16 225 13.3
2017-Dec-13 14:06 225 13.3
2017-Dec-13 14:01 225 13.3
2017-Dec-13 13:41 225 13.9
2017-Dec-13 13:36 225 13.9
2017-Dec-13 13:31 225 13.9
2017-Dec-13 13:11 226 14.4
2017-Dec-13 13:06 226 15.0
2017-Dec-13 13:01 227 1 gusting 2 15.0
2017-Dec-13 12:46 211 1 gusting 2 16.1
2017-Dec-13 12:41 207 16.1
2017-Dec-13 12:36 208 1 gusting 4 16.1
2017-Dec-13 12:16 242 16.1
2017-Dec-13 12:11 242 15.6
2017-Dec-13 12:06 242 15.6
2017-Dec-13 12:01 242 15.0
2017-Dec-13 11:41 240 14.4
2017-Dec-13 11:36 235 0 gusting 1 13.9
2017-Dec-13 11:31 234 0 gusting 4 13.9
2017-Dec-13 11:16 244 0 gusting 2 13.9
2017-Dec-13 11:06 254 13.9
2017-Dec-13 10:46 239 2 gusting 4 13.3
2017-Dec-13 10:16 225 12.2
2017-Dec-13 10:11 225 12.2
2017-Dec-13 10:06 225 11.7
2017-Dec-13 09:46 227 11.1
2017-Dec-13 09:41 227 11.1
2017-Dec-13 09:16 199 10.6
2017-Dec-13 09:11 199 10.6
2017-Dec-13 09:01 204 10.6
2017-Dec-13 08:46 213 10.6
2017-Dec-13 08:41 213 10.0
2017-Dec-13 08:36 213 10.0
2017-Dec-13 08:31 213 9.4
2017-Dec-13 08:16 213 8.9
2017-Dec-13 08:11 211 0 gusting 2 8.9
2017-Dec-13 08:06 190 0 gusting 2 8.9
2017-Dec-13 07:46 197 0 gusting 1 8.3
2017-Dec-13 07:36 355 8.3
2017-Dec-13 07:31 350 7.8
2017-Dec-13 07:16 349 7.2
2017-Dec-13 06:46 6.1
2017-Dec-13 06:41 6.1
2017-Dec-13 06:36 6.1
2017-Dec-13 06:31 5.6
2017-Dec-13 06:11 001 5.0
2017-Dec-13 06:06 017 5.0
2017-Dec-13 06:01 017 5.0
2017-Dec-13 05:46 017 5.0
2017-Dec-13 05:41 017 5.0
2017-Dec-13 05:16 017 5.0
2017-Dec-13 05:01 017 5.0
2017-Dec-13 04:46 017 4.4
2017-Dec-13 04:41 017 4.4
2017-Dec-13 04:36 017 5.0
2017-Dec-13 04:31 017 5.0
2017-Dec-13 04:16 017 5.0
2017-Dec-13 04:11 017 5.0
2017-Dec-13 04:01 017 5.0
2017-Dec-13 03:46 017 5.0
2017-Dec-13 03:41 017 5.0
2017-Dec-13 03:31 017 5.0
2017-Dec-13 03:16 017 5.6
2017-Dec-13 03:11 017 5.6
2017-Dec-13 03:06 012 5.6
2017-Dec-13 02:46 012 5.6
2017-Dec-13 02:41 012 5.6
2017-Dec-13 02:36 012 5.6
2017-Dec-13 02:31 012 5.6
2017-Dec-13 02:16 012 5.6
2017-Dec-13 02:11 012 6.1
2017-Dec-13 02:01 012 6.1
2017-Dec-13 01:46 012 6.1
2017-Dec-13 01:41 012 6.1
2017-Dec-13 01:36 012 6.1
2017-Dec-13 01:31 012 6.1
2017-Dec-13 01:16 012 6.7
2017-Dec-13 01:01 012 6.1
2017-Dec-13 00:46 012 6.7
2017-Dec-13 00:41 012 6.7
2017-Dec-13 00:36 012 6.7
2017-Dec-13 00:16 012 6.7
2017-Dec-13 00:11 012 6.7
2017-Dec-13 00:06 012 6.7
2017-Dec-13 00:01 012 6.7
2017-Dec-12 23:41 012 6.7
2017-Dec-12 23:36 012 6.7
2017-Dec-12 23:31 012 6.7
2017-Dec-12 23:16 012 6.7
2017-Dec-12 23:11 012 6.7
2017-Dec-12 22:46 012 7.2
2017-Dec-12 22:41 012 7.2
2017-Dec-12 22:36 012 7.2
2017-Dec-12 22:31 012 7.8
2017-Dec-12 22:16 012 7.8
2017-Dec-12 22:11 012 7.8
2017-Dec-12 22:06 012 7.8
2017-Dec-12 22:01 012 7.8
2017-Dec-12 21:41 252 7.8
2017-Dec-12 21:36 251 7.8
2017-Dec-12 21:31 251 7.8
2017-Dec-12 21:16 250 7.8
2017-Dec-12 21:11 250 7.8
2017-Dec-12 21:01 249 7.8
2017-Dec-12 20:46 243 7.8
2017-Dec-12 20:41 243 7.8
2017-Dec-12 20:36 243 7.8
2017-Dec-12 20:31 243 7.8
2017-Dec-12 20:16 243 7.8
2017-Dec-12 20:06 243 7.8
2017-Dec-12 20:01 243 8.3
2017-Dec-12 19:46 243 8.3
2017-Dec-12 19:41 243 8.3
2017-Dec-12 19:36 243 8.3
2017-Dec-12 19:16 243 8.3
2017-Dec-12 19:11 243 8.3
2017-Dec-12 19:01 243 8.9
2017-Dec-12 18:46 243 8.9
2017-Dec-12 18:41 243 8.9
2017-Dec-12 18:36 243 8.9
2017-Dec-12 18:31 243 8.9
2017-Dec-12 18:16 243 9.4
2017-Dec-12 18:11 243 9.4
2017-Dec-12 18:01 243 9.4
2017-Dec-12 17:46 243 9.4
2017-Dec-12 17:36 243 9.4
2017-Dec-12 17:31 242 9.4
2017-Dec-12 17:16 241 10.0
2017-Dec-12 17:11 239 10.0
2017-Dec-12 17:06 239 10.0
2017-Dec-12 17:01 239 10.0
2017-Dec-12 16:41 239 10.6
2017-Dec-12 16:36 239 10.6
2017-Dec-12 16:16 239 11.1
2017-Dec-12 16:11 239 11.1
2017-Dec-12 16:06 239 11.1
2017-Dec-12 16:01 239 11.1
2017-Dec-12 15:46 239 11.7
2017-Dec-12 15:36 239 12.2
2017-Dec-12 15:31 239 12.2
2017-Dec-12 15:11 239 12.8
2017-Dec-12 15:01 239 12.8
2017-Dec-12 14:41 239 13.3
2017-Dec-12 14:36 239 13.3
2017-Dec-12 14:31 239 13.3
2017-Dec-12 14:16 239 13.3
2017-Dec-12 14:06 240 13.3
2017-Dec-12 14:01 240 0 gusting 2 13.9
2017-Dec-12 13:46 255 13.9
2017-Dec-12 13:41 254 13.3
2017-Dec-12 13:36 254 13.3
2017-Dec-12 13:31 253 1 gusting 2 13.3
2017-Dec-12 13:16 234 0 gusting 2 13.3
2017-Dec-12 13:11 229 0 gusting 5 13.3
2017-Dec-12 13:06 228 1 gusting 4 13.3
2017-Dec-12 13:01 230 2 gusting 5 13.3
2017-Dec-12 12:46 218 3 gusting 5 13.3
2017-Dec-12 12:36 250 0 gusting 4 13.3
2017-Dec-12 12:31 252 4 gusting 5 13.3
2017-Dec-12 12:11 275 1 gusting 4 12.8
2017-Dec-12 12:01 237 0 gusting 2 12.8
2017-Dec-12 11:46 306 12.2
2017-Dec-12 11:41 308 12.2
2017-Dec-12 11:36 305 11.7
2017-Dec-12 11:31 303 11.7
2017-Dec-12 11:16 325 0 gusting 4 11.1
2017-Dec-12 11:06 351 0 gusting 4 10.6
2017-Dec-12 11:01 247 1 gusting 5 10.6
2017-Dec-12 10:46 245 4 gusting 6 10.6
2017-Dec-12 10:36 237 1 gusting 4 10.0
2017-Dec-12 10:11 267 0 gusting 2 10.0
2017-Dec-12 10:01 263 9.4
2017-Dec-12 09:46 240 1 gusting 2 9.4
2017-Dec-12 09:41 226 1 gusting 2 8.9
2017-Dec-12 09:36 238 0 gusting 1 8.9
2017-Dec-12 09:31 228 8.9
2017-Dec-12 09:16 218 8.3
2017-Dec-12 09:11 217 8.3
2017-Dec-12 09:06 213 7.8
2017-Dec-12 08:36 205 1 gusting 2 7.8
2017-Dec-12 08:31 201 0 gusting 2 7.2
2017-Dec-12 08:16 098 7.2
2017-Dec-12 08:11 098 6.7
2017-Dec-12 08:06 098 6.7
2017-Dec-12 08:01 097 6.7
2017-Dec-12 07:46 096 5.6
2017-Dec-12 07:41 093 5.6
2017-Dec-12 07:36 092 5.6
2017-Dec-12 07:31 092 5.0
2017-Dec-12 07:16 026 5.0
2017-Dec-12 07:06 023 4.4
2017-Dec-12 07:01 023 4.4
2017-Dec-12 06:46 023 3.9
2017-Dec-12 06:41 023 3.9
2017-Dec-12 06:16 015 3.3
2017-Dec-12 06:11 015 3.3
2017-Dec-12 06:06 015 3.3
2017-Dec-12 06:01 015 3.3
2017-Dec-12 05:46 015 3.3
2017-Dec-12 05:41 015 3.3
2017-Dec-12 05:31 015 3.3
2017-Dec-12 05:06 015 3.3
2017-Dec-12 05:01 015 3.3
2017-Dec-12 04:46 015 3.3
2017-Dec-12 04:41 014 3.3
2017-Dec-12 04:36 015 3.3
2017-Dec-12 04:31 015 3.3
2017-Dec-12 04:01 015 3.3